Hourly Data Report for October 04, 2017

All times are specified in Local Standard Time (LST). Add 1 hour to adjust for Daylight Saving Time where and when it is observed.

YARMOUTH A
NOVA SCOTIA

43°49'37.000" N
66°05'17.000" W
42.90 m
8206495
71603
YQI

Download Data

Hourly Data (October 2017)
Hourly Data Report for October 4, 2017
Temp Definition
°C
Dew Point Temp Definition
°C
Rel Hum Definition
%
Wind Dir Definition
10's deg

Wind Spd Definition
km/h
Visibility Definition
km
Stn Press Definition
kPa
Hmdx Definition


Wind Chill Definition


Weather Definition


TIME
00:00 Legend Double Dagger 9.4 6.2 80 23 11 24.1 102.68     LegendNANA
01:00 Legend Double Dagger 10.5 7.0 79 24 14 24.1 102.64     LegendNANA
02:00 Legend Double Dagger 11.1 7.7 79 22 14 24.1 102.57     Clear
03:00 Legend Double Dagger 11.2 8.7 84 23 15 24.1 102.51     LegendNANA
04:00 Legend Double Dagger 11.6 8.8 83 24 17 24.1 102.45     LegendNANA
05:00 Legend Double Dagger 12.1 9.5 84 24 20 24.1 102.41     Clear
06:00 Legend Double Dagger 12.2 10.1 87 24 20 24.1 102.35     LegendNANA
07:00 Legend Double Dagger 12.9 10.7 86 23 20 24.1 102.31     LegendNANA
08:00 Legend Double Dagger 14.1 11.3 83 23 22 24.1 102.29     Cloudy
09:00 Legend Double Dagger 14.9 11.9 82 23 24 24.1 102.26     LegendNANA
10:00 Legend Double Dagger 15.7 11.9 78 22 24 24.1 102.19     LegendNANA
11:00 Legend Double Dagger 16.6 12.2 75 23 22 24.1 102.13     Cloudy
12:00 Legend Double Dagger 16.5 12.9 79 24 24 24.1 102.05     LegendNANA
13:00 Legend Double Dagger 16.3 13.1 81 24 30 19.3 101.91     LegendNANA
14:00 Legend Double Dagger 16.2 13.2 82 23 26 19.3 101.83     Mostly Cloudy
15:00 Legend Double Dagger 15.6 13.1 85 24 25 19.3 101.78     LegendNANA
16:00 Legend Double Dagger 15.3 13.2 87 24 22 19.3 101.71     LegendNANA
17:00 Legend Double Dagger 14.9 13.2 89 22 19 19.3 101.59     Cloudy
18:00 Legend Double Dagger 14.6 13.5 93 22 18 16.1 101.52     LegendNANA
19:00 Legend Double Dagger 14.5 13.6 94 23 21 14.5 101.47     LegendNANA
20:00 Legend Double Dagger 14.2 13.5 95 22 26 6.4 101.42     Fog
21:00 Legend Double Dagger 14.4 13.7 96 24 26 9.7 101.40     Fog
22:00 Legend Double Dagger 14.4 13.8 96 23 25 9.7 101.31     Fog
23:00 Legend Double Dagger 14.3 13.6 96 23 21 9.7 101.23     Fog

Notes on Data Quality.

Legend

  • E = Estimated
  • M = Missing
  • NA = Not Available
  • ‡ = Partner data that is not subject to review by the National Climate Archives
Date modified: